Location: Kalberh�ni
(46.4610°N, 7.2453°E)
Time: 07:51:38
(UTC+00:00)

FALCON 9 DEB - Pass Details

Date: 26 October 2021
Orbit: 344 x 354 km, 53.0° (Epoch: 30 November)

Event Time Altitude Azimuth Distance (km) Brightness Sun altitude
Rises 17:34:46 0° 208° (SSW) 2,159 7.2 -12.6°
Reaches altitude 10° 17:36:59 10° 193° (SSW) 1,325 5.8 -12.9°
Maximum altitude 17:39:26 24° 137° (SE) 806 4.1 -13.4°
Enters shadow 17:39:53 23° 122° (ESE) 832 4.1 -13.4°
